EXS9C EGBB-LEMH

Flight info

Callsign EXS9C
Flight time 1h 58m
Altitude 35000
Route CPT UN859 SOPIL DCT BALAN DCT EVPOK DCT NARAK DCT GAI DCT LOMRA DCT ROCAN DCT GEANT DCT GIR DCT SALON DCT SULID N727 SARGO
Aircraft B738/M-SDE2E3FGHIRWXY/LB1

Departure

Time 2026-04-10 11:26
Airport Birmingham Airport (EGBB)

Arrival

Time 2026-04-10 13:24
Airport Menorca Airport (LEMH)
Time Latitude Longitude Altitude Speed Heading
2026-04-10 10:53 52.45119 -1.73494 322 ft 0 kts 141°
2026-04-10 10:54 52.45118 -1.73493 322 ft 0 kts 141°
2026-04-10 11:15 52.45119 -1.73494 322 ft 1 kts 141°
2026-04-10 11:15 52.45131 -1.73511 321 ft 3 kts 141°
2026-04-10 11:15 52.45147 -1.73529 322 ft 3 kts 156°
2026-04-10 11:16 52.45164 -1.73536 319 ft 3 kts 192°
2026-04-10 11:16 52.45181 -1.73523 320 ft 3 kts 228°
2026-04-10 11:16 52.45188 -1.73509 320 ft 0 kts 236°
2026-04-10 11:16 52.45180 -1.73527 320 ft 3 kts 236°
2026-04-10 11:17 52.45173 -1.73544 321 ft 0 kts 236°
2026-04-10 11:19 52.45163 -1.73570 319 ft 7 kts 236°
2026-04-10 11:20 52.45123 -1.73665 322 ft 12 kts 236°
2026-04-10 11:20 52.45116 -1.73789 321 ft 12 kts 311°
2026-04-10 11:20 52.45184 -1.73867 321 ft 12 kts 327°
2026-04-10 11:20 52.45251 -1.73942 322 ft 11 kts 326°
2026-04-10 11:21 52.45309 -1.74026 322 ft 11 kts 297°
2026-04-10 11:21 52.45342 -1.74138 322 ft 11 kts 297°
2026-04-10 11:21 52.45388 -1.74285 322 ft 19 kts 297°
2026-04-10 11:21 52.45432 -1.74433 321 ft 24 kts 296°
2026-04-10 11:22 52.45560 -1.74667 321 ft 21 kts 326°
2026-04-10 11:22 52.45642 -1.74759 316 ft 22 kts 325°
2026-04-10 11:22 52.45776 -1.74909 308 ft 23 kts 327°
2026-04-10 11:22 52.45906 -1.75053 308 ft 22 kts 326°
2026-04-10 11:23 52.46034 -1.75194 305 ft 22 kts 326°
2026-04-10 11:23 52.46160 -1.75334 305 ft 21 kts 326°
2026-04-10 11:23 52.46293 -1.75482 302 ft 26 kts 325°
2026-04-10 11:23 52.46444 -1.75651 304 ft 26 kts 326°
2026-04-10 11:24 52.46566 -1.75786 306 ft 12 kts 326°
2026-04-10 11:24 52.46629 -1.75866 308 ft 11 kts 304°
2026-04-10 11:24 52.46609 -1.75978 307 ft 11 kts 232°
2026-04-10 11:24 52.46561 -1.76078 304 ft 10 kts 214°
2026-04-10 11:25 52.46515 -1.76069 307 ft 7 kts 137°
2026-04-10 11:25 52.46481 -1.76017 308 ft 7 kts 146°
2026-04-10 11:25 52.46412 -1.75945 307 ft 29 kts 146°
2026-04-10 11:25 52.46014 -1.75499 310 ft 109 kts 146°
2026-04-10 11:26 52.45196 -1.74593 382 ft 170 kts 148°
2026-04-10 11:26 52.44147 -1.73416 1260 ft 178 kts 149°
2026-04-10 11:26 52.43205 -1.72316 2612 ft 163 kts 149°
2026-04-10 11:26 52.42258 -1.71226 3377 ft 170 kts 152°
2026-04-10 11:27 52.41206 -1.70201 3974 ft 180 kts 164°
2026-04-10 11:27 52.39991 -1.69664 4678 ft 181 kts 172°
2026-04-10 11:27 52.38683 -1.69151 5070 ft 205 kts 171°
2026-04-10 11:27 52.37239 -1.68324 5285 ft 232 kts 160°
2026-04-10 11:28 52.35762 -1.67130 5747 ft 243 kts 158°
2026-04-10 11:28 52.34224 -1.65858 5957 ft 245 kts 161°
2026-04-10 11:28 52.32677 -1.64812 5980 ft 243 kts 163°
2026-04-10 11:28 52.31117 -1.63801 6000 ft 244 kts 163°
2026-04-10 11:29 52.29505 -1.62753 6006 ft 246 kts 163°
2026-04-10 11:29 52.27911 -1.61711 5996 ft 246 kts 163°
2026-04-10 11:29 52.26321 -1.60667 6019 ft 247 kts 163°
2026-04-10 11:29 52.24711 -1.59614 6445 ft 250 kts 165°
2026-04-10 11:30 52.23077 -1.58724 7336 ft 246 kts 169°
2026-04-10 11:30 52.21396 -1.57897 7868 ft 262 kts 169°
2026-04-10 11:30 52.19619 -1.57023 8505 ft 271 kts 169°
2026-04-10 11:30 52.17805 -1.56119 9310 ft 275 kts 169°
2026-04-10 11:31 52.15971 -1.55198 10139 ft 277 kts 169°
2026-04-10 11:31 52.14110 -1.54264 10788 ft 285 kts 169°
2026-04-10 11:31 52.12131 -1.53279 11002 ft 309 kts 169°
2026-04-10 11:31 52.09996 -1.52217 11190 ft 332 kts 168°
2026-04-10 11:32 52.07739 -1.51091 11354 ft 354 kts 168°
2026-04-10 11:32 52.05306 -1.49870 11702 ft 368 kts 168°
2026-04-10 11:32 52.02837 -1.48624 12314 ft 374 kts 168°
2026-04-10 11:32 52.00341 -1.47363 13029 ft 378 kts 168°
2026-04-10 11:33 51.97816 -1.46091 13676 ft 382 kts 168°
2026-04-10 11:33 51.95257 -1.44805 14266 ft 387 kts 168°
2026-04-10 11:33 51.92680 -1.43514 14843 ft 391 kts 168°
2026-04-10 11:33 51.90059 -1.42204 15446 ft 394 kts 169°
2026-04-10 11:34 51.87424 -1.40890 16035 ft 398 kts 169°
2026-04-10 11:34 51.84766 -1.39566 16573 ft 403 kts 169°
2026-04-10 11:34 51.82066 -1.38224 17129 ft 407 kts 169°
2026-04-10 11:34 51.79352 -1.36876 17671 ft 410 kts 169°
2026-04-10 11:35 51.76612 -1.35516 18231 ft 414 kts 169°
2026-04-10 11:35 51.73855 -1.34150 18727 ft 418 kts 169°
2026-04-10 11:35 51.71060 -1.32766 19225 ft 420 kts 169°
2026-04-10 11:35 51.68259 -1.31380 19722 ft 422 kts 169°
2026-04-10 11:36 51.65436 -1.29986 20200 ft 425 kts 169°
2026-04-10 11:36 51.62600 -1.28588 20653 ft 429 kts 169°
2026-04-10 11:36 51.59736 -1.27178 21108 ft 431 kts 169°
2026-04-10 11:36 51.56858 -1.25761 21544 ft 434 kts 169°
2026-04-10 11:37 51.53969 -1.24342 21954 ft 437 kts 169°
2026-04-10 11:37 51.51037 -1.22904 22383 ft 440 kts 169°
2026-04-10 11:37 51.48104 -1.21382 22795 ft 447 kts 165°
2026-04-10 11:37 51.45241 -1.19333 23207 ft 454 kts 160°
2026-04-10 11:38 51.42405 -1.17088 23579 ft 457 kts 160°
2026-04-10 11:38 51.39536 -1.14864 23922 ft 459 kts 161°
2026-04-10 11:38 51.36635 -1.12692 24235 ft 461 kts 162°
2026-04-10 11:38 51.33720 -1.10563 24547 ft 463 kts 162°
2026-04-10 11:39 51.30775 -1.08425 24858 ft 466 kts 162°
2026-04-10 11:39 51.27807 -1.06264 25165 ft 468 kts 162°
2026-04-10 11:39 51.24846 -1.04103 25479 ft 470 kts 162°
2026-04-10 11:39 51.21865 -1.01932 25777 ft 473 kts 162°
2026-04-10 11:40 51.18861 -0.99750 26058 ft 475 kts 162°
2026-04-10 11:40 51.15847 -0.97565 26409 ft 476 kts 162°
2026-04-10 11:40 51.12834 -0.95379 26846 ft 474 kts 162°
2026-04-10 11:40 51.09842 -0.93211 27333 ft 472 kts 162°
2026-04-10 11:41 51.06864 -0.91056 27804 ft 470 kts 162°
2026-04-10 11:41 51.03891 -0.88909 28227 ft 470 kts 162°
2026-04-10 11:41 51.00910 -0.86763 28609 ft 470 kts 162°
2026-04-10 11:41 50.97926 -0.84615 29018 ft 470 kts 162°
2026-04-10 11:42 50.95004 -0.82515 29458 ft 469 kts 162°
2026-04-10 11:42 50.92019 -0.80371 29839 ft 469 kts 162°
2026-04-10 11:42 50.89048 -0.78240 30234 ft 469 kts 162°
2026-04-10 11:42 50.86077 -0.76103 30564 ft 470 kts 161°
2026-04-10 11:43 50.83185 -0.73601 30816 ft 477 kts 154°
2026-04-10 11:43 50.80377 -0.70772 31101 ft 480 kts 153°
2026-04-10 11:43 50.77549 -0.67822 31390 ft 480 kts 152°
2026-04-10 11:43 50.74808 -0.64946 31669 ft 481 kts 152°
2026-04-10 11:44 50.71974 -0.61994 31929 ft 482 kts 153°
2026-04-10 11:44 50.69200 -0.59137 32172 ft 483 kts 153°
2026-04-10 11:44 50.66386 -0.56265 32456 ft 483 kts 153°
2026-04-10 11:44 50.63557 -0.53397 32737 ft 483 kts 153°
2026-04-10 11:45 50.60702 -0.50515 32986 ft 484 kts 153°
2026-04-10 11:45 50.57889 -0.47683 33222 ft 485 kts 153°
2026-04-10 11:45 50.55011 -0.44788 33485 ft 485 kts 153°
2026-04-10 11:45 50.52154 -0.41918 33764 ft 485 kts 153°
2026-04-10 11:46 50.49272 -0.39025 33977 ft 487 kts 153°
2026-04-10 11:46 50.46414 -0.36160 34184 ft 488 kts 153°
2026-04-10 11:46 50.43548 -0.33290 34418 ft 488 kts 153°
2026-04-10 11:46 50.40692 -0.30434 34692 ft 487 kts 153°
2026-04-10 11:47 50.37849 -0.27593 34925 ft 487 kts 153°
2026-04-10 11:47 50.34938 -0.24692 35118 ft 487 kts 153°
2026-04-10 11:47 50.29220 -0.19005 35191 ft 489 kts 153°
2026-04-10 11:48 50.23501 -0.13331 35193 ft 487 kts 153°
2026-04-10 11:48 50.17787 -0.07677 35203 ft 486 kts 153°
2026-04-10 11:49 50.12079 -0.02077 35199 ft 484 kts 156°
2026-04-10 11:49 50.05950 0.01808 35200 ft 468 kts 173°
2026-04-10 11:50 49.99580 0.04196 35191 ft 468 kts 174°
2026-04-10 11:50 49.93249 0.06583 35196 ft 470 kts 173°
2026-04-10 11:51 49.86900 0.09049 35194 ft 471 kts 173°
2026-04-10 11:51 49.80569 0.11526 35203 ft 473 kts 173°
2026-04-10 11:52 49.74125 0.14038 35205 ft 475 kts 173°
2026-04-10 11:52 49.67757 0.16510 35208 ft 476 kts 173°
2026-04-10 11:53 49.61330 0.19092 35209 ft 479 kts 172°
2026-04-10 11:53 49.54832 0.21744 35213 ft 479 kts 172°
2026-04-10 11:54 49.48418 0.24343 35202 ft 480 kts 172°
2026-04-10 11:54 49.41952 0.26946 35178 ft 480 kts 172°
2026-04-10 11:55 49.35496 0.29538 35176 ft 480 kts 172°
2026-04-10 11:55 49.29035 0.32139 35175 ft 480 kts 171°
2026-04-10 11:56 49.22547 0.34864 35170 ft 480 kts 171°
2026-04-10 11:56 49.16118 0.37588 35165 ft 480 kts 171°
2026-04-10 11:57 49.10778 0.39833 35159 ft 479 kts 171°
2026-04-10 11:57 49.04331 0.42527 35155 ft 480 kts 171°
2026-04-10 11:58 48.97886 0.45211 35161 ft 480 kts 171°
2026-04-10 11:58 48.91441 0.47889 35163 ft 481 kts 171°
2026-04-10 11:59 48.84973 0.50570 35157 ft 482 kts 171°
2026-04-10 11:59 48.78511 0.53240 35160 ft 483 kts 171°
2026-04-10 12:00 48.71995 0.55813 35162 ft 482 kts 172°
2026-04-10 12:00 48.65526 0.58315 35162 ft 483 kts 172°
2026-04-10 12:01 48.58975 0.60862 35165 ft 484 kts 171°
2026-04-10 12:01 48.52516 0.63376 35168 ft 484 kts 171°
2026-04-10 12:02 48.45982 0.65994 35162 ft 485 kts 170°
2026-04-10 12:02 48.39474 0.68660 35168 ft 485 kts 170°
2026-04-10 12:03 48.32918 0.71324 35159 ft 485 kts 170°
2026-04-10 12:03 48.26404 0.73954 35156 ft 484 kts 170°
2026-04-10 12:04 48.19897 0.76545 35164 ft 484 kts 171°
2026-04-10 12:04 48.13434 0.79080 35151 ft 483 kts 170°
2026-04-10 12:05 48.06930 0.81628 35167 ft 483 kts 170°
2026-04-10 12:05 48.00431 0.84173 35153 ft 482 kts 170°
2026-04-10 12:06 47.93938 0.86711 35148 ft 482 kts 170°
2026-04-10 12:06 47.87460 0.89237 35151 ft 482 kts 170°
2026-04-10 12:07 47.77727 0.93013 35154 ft 482 kts 170°
2026-04-10 12:08 47.71238 0.95519 35141 ft 481 kts 169°
2026-04-10 12:08 47.64757 0.98017 35139 ft 481 kts 169°
2026-04-10 12:09 47.58273 1.00511 35143 ft 481 kts 169°
2026-04-10 12:09 47.51791 1.02999 35140 ft 481 kts 169°
2026-04-10 12:10 47.45299 1.05479 35138 ft 481 kts 170°
2026-04-10 12:10 47.38746 1.06507 35151 ft 470 kts 186°
2026-04-10 12:11 47.32206 1.06252 35141 ft 470 kts 186°
2026-04-10 12:11 47.25659 1.06018 35143 ft 471 kts 186°
2026-04-10 12:12 47.19105 1.05858 35149 ft 471 kts 185°
2026-04-10 12:12 47.12544 1.05719 35146 ft 472 kts 185°
2026-04-10 12:13 47.05970 1.05575 35146 ft 472 kts 185°
2026-04-10 12:13 46.99404 1.05400 35145 ft 472 kts 186°
2026-04-10 12:14 46.92846 1.05105 35147 ft 471 kts 186°
2026-04-10 12:14 46.86293 1.04798 35141 ft 471 kts 186°
2026-04-10 12:15 46.79737 1.04507 35147 ft 471 kts 186°
2026-04-10 12:15 46.73185 1.04225 35147 ft 471 kts 186°
2026-04-10 12:16 46.66670 1.03946 35140 ft 471 kts 185°
2026-04-10 12:16 46.60068 1.03662 35143 ft 471 kts 185°
2026-04-10 12:17 46.53566 1.03394 35142 ft 472 kts 184°
2026-04-10 12:17 46.47035 1.04610 35149 ft 476 kts 169°
2026-04-10 12:18 46.40583 1.06861 35136 ft 476 kts 168°
2026-04-10 12:18 46.34141 1.09112 35132 ft 476 kts 169°
2026-04-10 12:19 46.27698 1.11289 35132 ft 476 kts 169°
2026-04-10 12:19 46.21244 1.13433 35129 ft 475 kts 169°
2026-04-10 12:20 46.14800 1.15564 35131 ft 475 kts 169°
2026-04-10 12:20 46.08356 1.17692 35131 ft 475 kts 169°
2026-04-10 12:21 46.01915 1.19816 35121 ft 475 kts 169°
2026-04-10 12:21 45.95470 1.21938 35127 ft 475 kts 168°
2026-04-10 12:22 45.89033 1.24050 35122 ft 474 kts 168°
2026-04-10 12:22 45.82602 1.26156 35132 ft 474 kts 168°
2026-04-10 12:23 45.76180 1.28255 35126 ft 473 kts 168°
2026-04-10 12:23 45.69757 1.30348 35124 ft 473 kts 168°
2026-04-10 12:24 45.63348 1.32433 35129 ft 472 kts 168°
2026-04-10 12:24 45.56939 1.34512 35123 ft 472 kts 168°
2026-04-10 12:25 45.50530 1.36588 35120 ft 472 kts 168°
2026-04-10 12:25 45.44135 1.38653 35133 ft 471 kts 168°
2026-04-10 12:26 45.37746 1.40710 35136 ft 470 kts 168°
2026-04-10 12:26 45.31373 1.42759 35139 ft 470 kts 168°
2026-04-10 12:27 45.25010 1.44801 35146 ft 469 kts 168°
2026-04-10 12:27 45.18632 1.46843 35155 ft 469 kts 168°
2026-04-10 12:28 45.12277 1.48873 35156 ft 468 kts 168°
2026-04-10 12:28 45.05919 1.50899 35159 ft 468 kts 168°
2026-04-10 12:29 44.99562 1.52920 35157 ft 468 kts 168°
2026-04-10 12:29 44.93225 1.54930 35155 ft 467 kts 168°
2026-04-10 12:30 44.86883 1.56937 35152 ft 466 kts 168°
2026-04-10 12:30 44.80552 1.58937 35148 ft 466 kts 168°
2026-04-10 12:31 44.74224 1.60931 35152 ft 466 kts 168°
2026-04-10 12:31 44.67907 1.62917 35145 ft 465 kts 168°
2026-04-10 12:32 44.61594 1.64897 35146 ft 464 kts 168°
2026-04-10 12:32 44.55292 1.66870 35144 ft 464 kts 168°
2026-04-10 12:33 44.48990 1.68838 35152 ft 463 kts 168°
2026-04-10 12:33 44.42709 1.70796 35151 ft 463 kts 168°
2026-04-10 12:34 44.36428 1.72749 35151 ft 462 kts 168°
2026-04-10 12:34 44.30191 1.74685 35145 ft 462 kts 168°
2026-04-10 12:35 44.23886 1.76267 35147 ft 461 kts 172°
2026-04-10 12:35 44.17550 1.77581 35157 ft 460 kts 172°
2026-04-10 12:36 44.11221 1.78928 35150 ft 460 kts 172°
2026-04-10 12:36 44.04908 1.80313 35151 ft 459 kts 172°
2026-04-10 12:37 43.98592 1.81701 35149 ft 459 kts 172°
2026-04-10 12:37 43.92267 1.82843 35157 ft 458 kts 176°
2026-04-10 12:38 43.85914 1.83430 35151 ft 458 kts 178°
2026-04-10 12:38 43.79553 1.83968 35152 ft 457 kts 177°
2026-04-10 12:39 43.73206 1.84556 35150 ft 457 kts 177°
2026-04-10 12:39 43.66861 1.85170 35155 ft 457 kts 177°
2026-04-10 12:40 43.60508 1.85787 35156 ft 457 kts 177°
2026-04-10 12:40 43.54157 1.86401 35152 ft 457 kts 176°
2026-04-10 12:41 43.47815 1.87012 35142 ft 457 kts 176°
2026-04-10 12:41 43.41469 1.87622 35125 ft 457 kts 176°
2026-04-10 12:42 43.35120 1.88231 35126 ft 456 kts 176°
2026-04-10 12:42 43.28831 1.88835 35122 ft 456 kts 176°
2026-04-10 12:43 43.22498 1.89444 35122 ft 456 kts 176°
2026-04-10 12:43 43.16172 1.90051 35118 ft 456 kts 176°
2026-04-10 12:44 43.10866 1.90559 35112 ft 456 kts 176°
2026-04-10 12:44 43.04547 1.91164 35116 ft 455 kts 176°
2026-04-10 12:45 42.98239 1.91765 35118 ft 454 kts 176°
2026-04-10 12:45 42.91937 1.92365 35118 ft 454 kts 176°
2026-04-10 12:46 42.85742 1.92954 35115 ft 453 kts 176°
2026-04-10 12:46 42.79450 1.93551 35116 ft 453 kts 176°
2026-04-10 12:47 42.73153 1.94147 35116 ft 453 kts 176°
2026-04-10 12:47 42.67041 1.95974 35120 ft 451 kts 155°
2026-04-10 12:47 42.64278 1.97988 35122 ft 451 kts 144°
2026-04-10 12:48 42.61817 2.00616 35128 ft 449 kts 139°
2026-04-10 12:48 42.57055 2.06122 35112 ft 450 kts 139°
2026-04-10 12:49 42.52257 2.11589 35098 ft 451 kts 139°
2026-04-10 12:49 42.47452 2.16967 35100 ft 451 kts 140°
2026-04-10 12:50 42.42569 2.22411 35091 ft 452 kts 139°
2026-04-10 12:50 42.37727 2.27818 35097 ft 452 kts 139°
2026-04-10 12:51 42.32870 2.33237 35087 ft 452 kts 139°
2026-04-10 12:51 42.28013 2.38647 35077 ft 452 kts 139°
2026-04-10 12:52 42.23164 2.44034 35071 ft 452 kts 139°
2026-04-10 12:52 42.18306 2.49420 35060 ft 452 kts 139°
2026-04-10 12:53 42.13448 2.54797 35061 ft 451 kts 139°
2026-04-10 12:53 42.08602 2.60148 35067 ft 450 kts 139°
2026-04-10 12:54 42.03762 2.65481 35069 ft 449 kts 139°
2026-04-10 12:54 41.98932 2.70796 35076 ft 448 kts 139°
2026-04-10 12:55 41.94109 2.76092 35073 ft 448 kts 139°
2026-04-10 12:55 41.89116 2.81189 34635 ft 458 kts 143°
2026-04-10 12:55 41.86521 2.83644 34173 ft 455 kts 143°
2026-04-10 12:56 41.83932 2.86066 33628 ft 451 kts 143°
2026-04-10 12:56 41.81370 2.88468 33104 ft 447 kts 143°
2026-04-10 12:56 41.78834 2.90861 32574 ft 445 kts 144°
2026-04-10 12:56 41.76301 2.93264 32065 ft 448 kts 144°
2026-04-10 12:57 41.73748 2.95694 31574 ft 452 kts 144°
2026-04-10 12:57 41.71180 2.98141 31085 ft 454 kts 144°
2026-04-10 12:57 41.68602 3.00596 30600 ft 455 kts 145°
2026-04-10 12:57 41.66021 3.03050 30128 ft 457 kts 145°
2026-04-10 12:58 41.63420 3.05520 29582 ft 461 kts 145°
2026-04-10 12:58 41.60792 3.08013 29041 ft 464 kts 145°
2026-04-10 12:58 41.58161 3.10507 28501 ft 464 kts 145°
2026-04-10 12:58 41.55527 3.13001 27973 ft 464 kts 145°
2026-04-10 12:59 41.52903 3.15484 27437 ft 464 kts 145°
2026-04-10 12:59 41.50262 3.17978 26853 ft 465 kts 145°
2026-04-10 12:59 41.47587 3.20389 26284 ft 465 kts 148°
2026-04-10 12:59 41.44834 3.22681 25725 ft 466 kts 149°
2026-04-10 13:00 41.42060 3.24911 25178 ft 466 kts 149°
2026-04-10 13:00 41.39295 3.27120 24638 ft 465 kts 149°
2026-04-10 13:00 41.36523 3.29347 24108 ft 461 kts 149°
2026-04-10 13:00 41.33804 3.31549 23562 ft 454 kts 149°
2026-04-10 13:01 41.31127 3.33730 22937 ft 447 kts 149°
2026-04-10 13:01 41.28492 3.35880 22331 ft 443 kts 149°
2026-04-10 13:01 41.25879 3.38012 21734 ft 439 kts 149°
2026-04-10 13:01 41.23286 3.40126 21144 ft 435 kts 149°
2026-04-10 13:02 41.20717 3.42216 20578 ft 432 kts 149°
2026-04-10 13:02 41.18161 3.44293 20022 ft 429 kts 149°
2026-04-10 13:02 41.15622 3.46366 19468 ft 427 kts 149°
2026-04-10 13:02 41.13103 3.48431 18933 ft 425 kts 149°
2026-04-10 13:03 41.10600 3.50483 18402 ft 422 kts 149°
2026-04-10 13:03 41.08107 3.52523 17798 ft 420 kts 149°
2026-04-10 13:03 41.05623 3.54550 17199 ft 417 kts 149°
2026-04-10 13:03 41.03155 3.56554 16613 ft 415 kts 149°
2026-04-10 13:04 41.00707 3.58534 16240 ft 410 kts 149°
2026-04-10 13:04 40.98270 3.60502 16145 ft 410 kts 149°
2026-04-10 13:04 40.95845 3.62458 16105 ft 408 kts 149°
2026-04-10 13:04 40.93420 3.64415 16108 ft 408 kts 149°
2026-04-10 13:05 40.90992 3.66372 16099 ft 409 kts 149°
2026-04-10 13:05 40.88565 3.68329 16099 ft 409 kts 149°
2026-04-10 13:05 40.86132 3.70288 16104 ft 409 kts 149°
2026-04-10 13:05 40.83704 3.72243 16102 ft 409 kts 149°
2026-04-10 13:06 40.81272 3.74198 16106 ft 409 kts 149°
2026-04-10 13:06 40.78843 3.76150 16107 ft 409 kts 150°
2026-04-10 13:06 40.76405 3.78107 16107 ft 409 kts 150°
2026-04-10 13:06 40.73973 3.80057 16107 ft 410 kts 150°
2026-04-10 13:07 40.71539 3.82008 16108 ft 410 kts 150°
2026-04-10 13:07 40.69105 3.83957 16110 ft 410 kts 150°
2026-04-10 13:07 40.66666 3.85908 16108 ft 410 kts 150°
2026-04-10 13:07 40.64228 3.87857 16111 ft 410 kts 150°
2026-04-10 13:08 40.61789 3.89805 16108 ft 410 kts 150°
2026-04-10 13:08 40.59350 3.91751 16003 ft 411 kts 150°
2026-04-10 13:08 40.56895 3.93709 15606 ft 412 kts 150°
2026-04-10 13:09 40.52030 3.97584 14893 ft 406 kts 150°
2026-04-10 13:09 40.49586 3.99395 14521 ft 403 kts 158°
2026-04-10 13:09 40.46946 4.00438 14188 ft 399 kts 167°
2026-04-10 13:09 40.44259 4.01334 13830 ft 398 kts 167°
2026-04-10 13:10 40.41576 4.02240 13431 ft 397 kts 167°
2026-04-10 13:10 40.38907 4.03157 13041 ft 396 kts 166°
2026-04-10 13:10 40.36209 4.04098 12654 ft 395 kts 166°
2026-04-10 13:10 40.33597 4.05018 12280 ft 394 kts 166°
2026-04-10 13:11 40.30962 4.05948 11909 ft 392 kts 166°
2026-04-10 13:11 40.28296 4.06893 11523 ft 390 kts 166°
2026-04-10 13:11 40.25669 4.07822 10891 ft 390 kts 166°
2026-04-10 13:11 40.23082 4.08737 10286 ft 378 kts 166°
2026-04-10 13:12 40.20620 4.09606 9670 ft 366 kts 166°
2026-04-10 13:12 40.18233 4.10631 9010 ft 358 kts 155°
2026-04-10 13:12 40.16083 4.12270 8391 ft 350 kts 149°
2026-04-10 13:12 40.14094 4.13975 7780 ft 343 kts 148°
2026-04-10 13:13 40.12134 4.15697 7172 ft 336 kts 147°
2026-04-10 13:13 40.10216 4.17399 6579 ft 331 kts 147°
2026-04-10 13:13 40.08329 4.19086 5954 ft 326 kts 147°
2026-04-10 13:13 40.06469 4.20747 5283 ft 323 kts 147°
2026-04-10 13:14 40.04615 4.22390 4540 ft 322 kts 147°
2026-04-10 13:14 40.02739 4.23961 3787 ft 319 kts 154°
2026-04-10 13:14 40.00614 4.24629 3209 ft 313 kts 178°
2026-04-10 13:14 39.98455 4.24473 2718 ft 307 kts 189°
2026-04-10 13:15 39.96431 4.23946 2528 ft 284 kts 191°
2026-04-10 13:15 39.94563 4.23562 2285 ft 262 kts 188°
2026-04-10 13:15 39.92806 4.23220 1850 ft 250 kts 189°
2026-04-10 13:15 39.91144 4.22873 1454 ft 234 kts 189°
2026-04-10 13:16 39.89585 4.22514 955 ft 224 kts 190°
2026-04-10 13:16 39.88110 4.22237 917 ft 203 kts 189°
2026-04-10 13:16 39.86747 4.21956 1780 ft 189 kts 189°
2026-04-10 13:16 39.85474 4.21790 2892 ft 189 kts 175°
2026-04-10 13:17 39.84100 4.22431 2960 ft 231 kts 142°
2026-04-10 13:17 39.83108 4.24076 2965 ft 234 kts 110°
2026-04-10 13:17 39.82943 4.26146 2968 ft 233 kts 78°
2026-04-10 13:17 39.83646 4.27995 2964 ft 229 kts 46°
2026-04-10 13:18 39.84989 4.29043 2975 ft 229 kts 14°
2026-04-10 13:18 39.86558 4.29384 2978 ft 228 kts
2026-04-10 13:18 39.88141 4.29655 2952 ft 231 kts
2026-04-10 13:18 39.89732 4.29928 2968 ft 233 kts
2026-04-10 13:19 39.91331 4.30205 2960 ft 229 kts
2026-04-10 13:19 39.92904 4.30471 2957 ft 228 kts
2026-04-10 13:19 39.94469 4.30734 2956 ft 222 kts
2026-04-10 13:19 39.95942 4.30981 2940 ft 204 kts
2026-04-10 13:20 39.97289 4.31209 2953 ft 188 kts
2026-04-10 13:20 39.98588 4.31253 2918 ft 189 kts 346°
2026-04-10 13:20 39.99694 4.30340 2688 ft 193 kts 309°
2026-04-10 13:20 40.00242 4.28774 2430 ft 193 kts 275°
2026-04-10 13:21 39.99946 4.27104 2191 ft 189 kts 242°
2026-04-10 13:21 39.99274 4.25659 2023 ft 184 kts 233°
2026-04-10 13:21 39.98292 4.24710 1980 ft 174 kts 200°
2026-04-10 13:21 39.97141 4.24262 1973 ft 173 kts 196°
2026-04-10 13:22 39.95946 4.23882 1969 ft 176 kts 191°
2026-04-10 13:22 39.94733 4.23612 1773 ft 176 kts 189°
2026-04-10 13:22 39.93556 4.23368 1548 ft 166 kts 188°
2026-04-10 13:22 39.92482 4.23149 1401 ft 152 kts 188°
2026-04-10 13:23 39.91429 4.22932 1159 ft 151 kts 189°
2026-04-10 13:23 39.90414 4.22720 983 ft 144 kts 189°
2026-04-10 13:23 39.89440 4.22523 794 ft 140 kts 189°
2026-04-10 13:23 39.88481 4.22329 581 ft 139 kts 191°
2026-04-10 13:24 39.87537 4.22131 391 ft 137 kts 189°
2026-04-10 13:24 39.86624 4.21941 302 ft 124 kts 189°
2026-04-10 13:24 39.85916 4.21796 301 ft 80 kts 187°
2026-04-10 13:24 39.85545 4.21719 290 ft 40 kts 189°
2026-04-10 13:25 39.85280 4.21664 284 ft 37 kts 188°
2026-04-10 13:25 39.85118 4.21698 283 ft 20 kts 134°
2026-04-10 13:25 39.85068 4.21828 279 ft 16 kts 77°
2026-04-10 13:25 39.85161 4.21877 280 ft 15 kts
2026-04-10 13:26 39.85264 4.21900 280 ft 15 kts 12°
2026-04-10 13:26 39.85362 4.21920 281 ft 14 kts
2026-04-10 13:26 39.85425 4.21932 282 ft 14 kts
2026-04-10 13:26 39.85516 4.21950 284 ft 13 kts
2026-04-10 13:27 39.85606 4.21970 287 ft 13 kts 10°
2026-04-10 13:27 39.85691 4.21986 290 ft 12 kts
2026-04-10 13:27 39.85764 4.22002 295 ft 12 kts
2026-04-10 13:27 39.85846 4.22019 294 ft 12 kts
2026-04-10 13:28 39.85926 4.22035 297 ft 11 kts
2026-04-10 13:28 39.86010 4.22052 295 ft 14 kts
2026-04-10 13:28 39.86128 4.22076 294 ft 19 kts
2026-04-10 13:28 39.86191 4.22150 290 ft 15 kts 95°
2026-04-10 13:29 39.86219 4.22266 287 ft 16 kts 14°
2026-04-10 13:29 39.86317 4.22286 287 ft 11 kts
2026-04-10 13:29 39.86388 4.22300 287 ft 9 kts
2026-04-10 13:29 39.86423 4.22308 290 ft 4 kts 18°
2026-04-10 13:30 39.86432 4.22338 287 ft 4 kts 86°
2026-04-10 13:30 39.86426 4.22383 285 ft 2 kts 100°
2026-04-10 13:30 39.86426 4.22385 285 ft 0 kts 100°